Time,TemperatureF,DewpointF,PressureIn,WindDirection,WindDirectionDegrees,WindSpeedMPH,WindSpeedGustMPH,Humidity,HourlyPrecipIn,Conditions,Clouds,dailyrainin,SoftwareType,DateUTC
2013-04-14 00:00:00,35.6,32.7,29.99,SSW,202,3.0,3.6,89,0.00,SCT,,0.00,WeatherDisplay:10.37,2013-04-14 04:00:00,
2013-04-14 00:01:00,36.1,32.9,29.99,North,360,3.3,4.6,88,0.00,SCT,,0.00,WeatherDisplay:10.37,2013-04-14 04:01:00,
2013-04-14 00:02:00,36.3,32.8,30.00,NW,315,1.8,4.6,87,0.00,SCT,,0.00,WeatherDisplay:10.37,2013-04-14 04:02:00,
2013-04-14 00:03:00,36.5,33.0,30.00,NW,315,0.0,4.6,87,0.00,SCT,,0.00,WeatherDisplay:10.37,2013-04-14 04:03:00,
2013-04-14 00:08:00,37.2,33.4,30.00,NW,315,3.0,3.6,86,0.00,SCT,,0.00,WeatherDisplay:10.37,2013-04-14 04:08:00,
2013-04-14 00:13:00,38.1,33.4,30.00,NW,315,0.0,2.3,83,0.00,SCT,,0.00,WeatherDisplay:10.37,2013-04-14 04:13:00,
2013-04-14 00:18:00,37.0,32.9,30.00,ENE,68,0.2,3.6,85,0.00,SCT,,0.00,WeatherDisplay:10.37,2013-04-14 04:18:00,
2013-04-14 00:23:00,37.4,33.0,30.00,North,360,2.1,3.6,84,0.00,SCT,,0.00,WeatherDisplay:10.37,2013-04-14 04:23:00,
2013-04-14 00:28:00,37.9,33.2,30.01,NNW,338,3.1,5.8,83,0.00,SCT,,0.00,WeatherDisplay:10.37,2013-04-14 04:28:00,
2013-04-14 00:33:00,38.3,33.3,30.01,NW,315,4.5,5.3,82,0.00,SCT,,0.00,WeatherDisplay:10.37,2013-04-14 04:33:00,
2013-04-14 00:38:00,38.5,33.5,30.02,NNE,22,2.0,4.6,82,0.00,SCT,,0.00,WeatherDisplay:10.37,2013-04-14 04:38:00,
2013-04-14 00:43:00,38.7,33.4,30.02,ESE,112,1.8,3.5,81,0.00,SCT,,0.00,WeatherDisplay:10.37,2013-04-14 04:43:00,
2013-04-14 00:48:00,39.0,33.7,30.02,West,270,2.2,4.6,81,0.00,SCT,,0.00,WeatherDisplay:10.37,2013-04-14 04:48:00,
2013-04-14 00:53:00,38.8,33.5,30.03,NNW,338,0.0,2.3,81,0.00,SCT,,0.00,WeatherDisplay:10.37,2013-04-14 04:53:00,
2013-04-14 00:58:00,39.2,33.9,30.03,West,270,4.2,6.1,81,0.00,SCT,,0.00,WeatherDisplay:10.37,2013-04-14 04:58:00,
2013-04-14 01:03:00,38.8,33.5,30.03,WNW,292,3.0,4.6,81,0.00,SCT,,0.00,WeatherDisplay:10.37,2013-04-14 05:03:00,
2013-04-14 01:08:00,38.8,33.8,30.03,West,270,2.9,5.3,82,0.00,SCT,,0.00,WeatherDisplay:10.37,2013-04-14 05:08:00,
2013-04-14 01:13:00,39.4,33.7,30.03,NNE,22,5.2,6.1,80,0.00,SCT,,0.00,WeatherDisplay:10.37,2013-04-14 05:13:00,
2013-04-14 01:18:00,39.4,33.4,30.03,NNE,22,0.0,4.6,79,0.00,SCT,,0.00,WeatherDisplay:10.37,2013-04-14 05:18:00,
2013-04-14 01:23:00,39.4,33.1,30.03,WNW,292,3.3,6.9,78,0.00,SCT,,0.00,WeatherDisplay:10.37,2013-04-14 05:23:00,
2013-04-14 01:28:00,39.0,32.7,30.04,West,270,2.9,8.1,78,0.00,SCT,,0.00,WeatherDisplay:10.37,2013-04-14 05:28:00,
2013-04-14 01:33:00,38.5,32.2,30.04,NNW,338,2.8,4.6,78,0.00,SCT,,0.00,WeatherDisplay:10.37,2013-04-14 05:33:00,
2013-04-14 01:38:00,38.5,32.2,30.04,North,360,1.9,2.7,78,0.00,SCT,,0.00,WeatherDisplay:10.37,2013-04-14 05:38:00,
2013-04-14 01:43:00,38.3,31.7,30.04,North,360,0.8,4.6,77,0.00,SCT,,0.00,WeatherDisplay:10.37,2013-04-14 05:43:00,
2013-04-14 01:48:00,38.3,32.0,30.04,North,360,0.0,0.0,78,0.00,SCT,,0.00,WeatherDisplay:10.37,2013-04-14 05:48:00,
2013-04-14 01:53:00,37.9,32.0,30.04,North,360,0.0,0.0,79,0.00,SCT,,0.00,WeatherDisplay:10.37,2013-04-14 05:53:00,
2013-04-14 01:58:00,37.4,31.8,30.04,NNW,338,0.0,3.5,80,0.00,SCT,,0.00,WeatherDisplay:10.37,2013-04-14 05:58:00,
2013-04-14 02:03:00,36.9,31.9,30.04,NNW,338,0.0,3.5,82,0.00,FEW,,0.00,WeatherDisplay:10.37,2013-04-14 06:03:00,
2013-04-14 02:08:00,36.3,31.9,30.04,NW,315,3.9,5.3,84,0.00,FEW,,0.00,WeatherDisplay:10.37,2013-04-14 06:08:00,
2013-04-14 02:13:00,36.1,31.7,30.04,NW,315,2.0,2.7,84,0.00,FEW,,0.00,WeatherDisplay:10.37,2013-04-14 06:13:00,
2013-04-14 02:18:00,36.0,31.9,30.04,NW,315,0.0,0.0,85,0.00,FEW,,0.00,WeatherDisplay:10.37,2013-04-14 06:18:00,
2013-04-14 02:23:00,35.8,32.0,30.04,NW,315,0.0,0.0,86,0.00,FEW,,0.00,WeatherDisplay:10.37,2013-04-14 06:23:00,
2013-04-14 02:28:00,35.4,31.3,30.04,NNE,22,0.2,3.5,85,0.00,FEW,,0.00,WeatherDisplay:10.37,2013-04-14 06:28:00,
2013-04-14 02:33:00,35.4,31.6,30.04,NNE,22,0.7,2.3,86,0.00,FEW,,0.00,WeatherDisplay:10.37,2013-04-14 06:33:00,
2013-04-14 02:38:00,35.2,31.4,30.04,NNE,22,0.0,0.0,86,0.00,FEW,,0.00,WeatherDisplay:10.37,2013-04-14 06:38:00,
2013-04-14 02:43:00,35.2,30.3,30.04,NW,315,5.1,8.1,82,0.00,FEW,,0.00,WeatherDisplay:10.37,2013-04-14 06:43:00,
2013-04-14 02:48:00,35.6,29.7,30.04,NW,315,2.2,8.1,79,0.00,FEW,,0.00,WeatherDisplay:10.37,2013-04-14 06:48:00,
2013-04-14 02:53:00,36.0,29.2,30.04,NW,315,2.1,2.7,76,0.00,FEW,,0.00,WeatherDisplay:10.37,2013-04-14 06:53:00,
2013-04-14 03:03:00,35.8,29.0,30.04,NW,315,3.6,6.1,76,0.00,FEW,,0.00,WeatherDisplay:10.37,2013-04-14 07:03:00,
2013-04-14 03:08:00,35.4,28.3,30.04,NW,315,3.5,5.8,75,0.00,FEW,,0.00,WeatherDisplay:10.37,2013-04-14 07:08:00,
2013-04-14 03:13:00,35.2,28.4,30.04,NW,315,0.0,2.3,76,0.00,FEW,,0.00,WeatherDisplay:10.37,2013-04-14 07:13:00,
2013-04-14 03:18:00,34.7,28.5,30.05,NW,315,0.0,3.5,78,0.00,FEW,,0.00,WeatherDisplay:10.37,2013-04-14 07:18:00,
2013-04-14 03:23:00,34.5,28.3,30.05,NW,315,0.0,0.0,78,0.00,FEW,,0.00,WeatherDisplay:10.37,2013-04-14 07:23:00,
2013-04-14 03:28:00,34.2,28.4,30.04,NW,315,0.0,0.0,79,0.00,FEW,,0.00,WeatherDisplay:10.37,2013-04-14 07:28:00,
2013-04-14 03:33:00,33.8,28.6,30.04,NW,315,0.0,0.0,81,0.00,FEW,,0.00,WeatherDisplay:10.37,2013-04-14 07:33:00,
2013-04-14 03:38:00,33.4,28.5,30.05,NW,315,0.0,0.0,82,0.00,FEW,,0.00,WeatherDisplay:10.37,2013-04-14 07:38:00,
2013-04-14 03:43:00,32.7,28.4,30.05,NW,315,0.0,0.0,84,0.00,FEW,,0.00,WeatherDisplay:10.37,2013-04-14 07:43:00,
2013-04-14 03:48:00,32.4,28.4,30.05,NW,315,0.0,0.0,85,0.00,FEW,,0.00,WeatherDisplay:10.37,2013-04-14 07:48:00,
2013-04-14 03:53:00,32.4,28.4,30.06,NW,315,0.0,0.0,85,0.00,FEW,,0.00,WeatherDisplay:10.37,2013-04-14 07:53:00,
2013-04-14 03:58:00,32.4,28.1,30.06,NW,315,0.0,0.0,84,0.00,FEW,,0.00,WeatherDisplay:10.37,2013-04-14 07:58:00,
2013-04-14 04:03:00,31.8,28.1,30.06,NW,315,0.0,0.0,86,0.00,FEW,,0.00,WeatherDisplay:10.37,2013-04-14 08:03:00,
2013-04-14 04:08:00,31.1,28.0,30.06,NW,315,0.0,0.0,88,0.00,FEW,,0.00,WeatherDisplay:10.37,2013-04-14 08:08:00,
2013-04-14 04:13:00,31.1,28.2,30.06,NW,315,0.0,0.0,89,0.00,FEW,,0.00,WeatherDisplay:10.37,2013-04-14 08:13:00,
2013-04-14 04:18:00,30.7,27.6,30.06,NW,315,0.0,0.0,88,0.00,FEW,,0.00,WeatherDisplay:10.37,2013-04-14 08:18:00,
2013-04-14 04:23:00,30.7,27.6,30.06,NW,315,0.0,0.0,88,0.00,FEW,,0.00,WeatherDisplay:10.37,2013-04-14 08:23:00,
2013-04-14 04:29:00,30.4,27.8,30.06,NW,315,2.7,2.7,90,0.00,FEW,,0.00,WeatherDisplay:10.37,2013-04-14 08:29:00,
2013-04-14 04:34:00,30.2,27.3,30.06,NW,315,1.4,3.6,89,0.00,FEW,,0.00,WeatherDisplay:10.37,2013-04-14 08:34:00,
2013-04-14 04:39:00,30.0,27.4,30.06,NW,315,0.0,4.6,90,0.00,FEW,,0.00,WeatherDisplay:10.37,2013-04-14 08:39:00,
2013-04-14 04:44:00,30.2,27.6,30.06,NW,315,0.0,0.0,90,0.00,FEW,,0.00,WeatherDisplay:10.37,2013-04-14 08:44:00,
2013-04-14 04:49:00,30.2,27.6,30.07,NW,315,0.0,0.0,90,0.00,FEW,,0.00,WeatherDisplay:10.37,2013-04-14 08:49:00,
2013-04-14 04:54:00,30.2,27.9,30.07,NW,315,0.0,2.3,91,0.00,FEW,,0.00,WeatherDisplay:10.37,2013-04-14 08:54:00,
2013-04-14 04:59:00,30.2,27.6,30.07,NW,315,0.0,0.0,90,0.00,FEW,,0.00,WeatherDisplay:10.37,2013-04-14 08:59:00,
2013-04-14 05:04:00,30.0,27.7,30.07,NW,315,0.0,0.0,91,0.00,CLR,,0.00,WeatherDisplay:10.37,2013-04-14 09:04:00,
2013-04-14 05:09:00,30.0,27.4,30.07,NW,315,0.0,0.0,90,0.00,CLR,,0.00,WeatherDisplay:10.37,2013-04-14 09:09:00,
2013-04-14 05:14:00,29.7,27.1,30.07,NW,315,0.0,0.0,90,0.00,CLR,,0.00,WeatherDisplay:10.37,2013-04-14 09:14:00,
2013-04-14 05:19:00,29.1,27.6,30.07,NW,315,0.0,0.0,94,0.00,CLR,,0.00,WeatherDisplay:10.37,2013-04-14 09:19:00,
2013-04-14 05:24:00,29.1,27.6,30.07,NW,315,0.0,0.0,94,0.00,CLR,,0.00,WeatherDisplay:10.37,2013-04-14 09:24:00,
2013-04-14 05:29:00,28.9,27.4,30.07,NW,315,0.0,0.0,94,0.00,CLR,,0.00,WeatherDisplay:10.37,2013-04-14 09:29:00,
2013-04-14 05:34:00,28.9,27.1,30.07,NW,315,0.0,0.0,93,0.00,CLR,,0.00,WeatherDisplay:10.37,2013-04-14 09:34:00,
2013-04-14 05:39:00,28.9,27.1,30.08,NW,315,0.0,0.0,93,0.00,CLR,,0.00,WeatherDisplay:10.37,2013-04-14 09:39:00,
2013-04-14 05:44:00,28.6,27.1,30.08,NW,315,0.0,0.0,94,0.00,CLR,,0.00,WeatherDisplay:10.37,2013-04-14 09:44:00,
2013-04-14 05:49:00,28.4,27.2,30.08,NW,315,1.3,2.7,95,0.00,CLR,,0.00,WeatherDisplay:10.37,2013-04-14 09:49:00,
2013-04-14 05:54:00,28.9,27.6,30.08,NW,315,0.0,0.0,95,0.00,CLR,,0.00,WeatherDisplay:10.37,2013-04-14 09:54:00,
2013-04-14 05:59:00,28.4,26.9,30.08,NW,315,0.0,0.0,94,0.00,CLR,,0.00,WeatherDisplay:10.37,2013-04-14 09:59:00,
2013-04-14 06:04:00,28.4,27.2,30.08,NW,315,0.0,0.0,95,0.00,CLR,,0.00,WeatherDisplay:10.37,2013-04-14 10:04:00,
2013-04-14 06:09:00,28.2,26.7,30.08,NW,315,0.0,0.0,94,0.00,CLR,CLR,0.00,WeatherDisplay:10.37,2013-04-14 10:09:00,
2013-04-14 06:15:00,28.2,27.2,30.09,NW,315,0.0,0.0,96,0.00,CLR,,0.00,WeatherDisplay:10.37,2013-04-14 10:15:00,
2013-04-14 06:20:00,27.9,26.9,30.09,NW,315,0.0,0.0,96,0.00,FEW,,0.00,WeatherDisplay:10.37,2013-04-14 10:20:00,
2013-04-14 06:25:00,27.9,27.4,30.09,NW,315,0.0,0.0,98,0.00,FEW,,0.00,WeatherDisplay:10.37,2013-04-14 10:25:00,
2013-04-14 06:30:00,27.9,27.4,30.09,NW,315,0.0,0.0,98,0.00,FEW,,0.00,WeatherDisplay:10.37,2013-04-14 10:30:00,
2013-04-14 06:35:00,27.9,27.4,30.09,NW,315,0.0,0.0,98,0.00,FEW,,0.00,WeatherDisplay:10.37,2013-04-14 10:35:00,
2013-04-14 06:42:00,27.9,27.2,30.09,NW,315,0.0,0.0,97,0.00,FEW,,0.00,WeatherDisplay:10.37,2013-04-14 10:42:00,
2013-04-14 06:48:00,27.7,27.0,30.09,NW,315,0.0,0.0,97,0.00,FEW,,0.00,WeatherDisplay:10.37,2013-04-14 10:48:00,
2013-04-14 06:54:00,27.7,27.0,30.09,NW,315,0.0,0.0,97,0.00,FEW,,0.00,WeatherDisplay:10.37,2013-04-14 10:54:00,
2013-04-14 06:59:00,27.5,27.0,30.09,NW,315,0.0,0.0,98,0.00,FEW,,0.00,WeatherDisplay:10.37,2013-04-14 10:59:00,
2013-04-14 07:04:00,27.7,27.5,30.10,NW,315,0.0,0.0,99,0.00,SCT,,0.00,WeatherDisplay:10.37,2013-04-14 11:04:00,
2013-04-14 07:09:00,27.7,27.5,30.10,NW,315,0.0,0.0,99,0.00,SCT,,0.00,WeatherDisplay:10.37,2013-04-14 11:09:00,
2013-04-14 07:14:00,27.9,27.7,30.10,NW,315,0.0,0.0,99,0.00,SCT,,0.00,WeatherDisplay:10.37,2013-04-14 11:14:00,
2013-04-14 07:19:00,28.0,27.8,30.10,NW,315,0.0,0.0,99,0.00,SCT,,0.00,WeatherDisplay:10.37,2013-04-14 11:19:00,
2013-04-14 07:24:00,28.4,28.2,30.10,NW,315,0.0,0.0,99,0.00,SCT,,0.00,WeatherDisplay:10.37,2013-04-14 11:24:00,
2013-04-14 07:29:00,28.6,28.4,30.10,NW,315,0.0,0.0,99,0.00,SCT,,0.00,WeatherDisplay:10.37,2013-04-14 11:29:00,
2013-04-14 07:34:00,28.8,28.6,30.10,NW,315,0.0,0.0,99,0.00,SCT,,0.00,WeatherDisplay:10.37,2013-04-14 11:34:00,
2013-04-14 07:39:00,29.5,29.5,30.11,NW,315,0.0,0.0,100,0.00,SCT,,0.00,WeatherDisplay:10.37,2013-04-14 11:39:00,
2013-04-14 07:44:00,30.6,30.6,30.11,NW,315,0.0,0.0,100,0.00,SCT,,0.00,WeatherDisplay:10.37,2013-04-14 11:44:00,
2013-04-14 07:49:00,32.2,31.7,30.11,NW,315,0.0,0.0,98,0.00,SCT,,0.00,WeatherDisplay:10.37,2013-04-14 11:49:00,
2013-04-14 07:54:00,33.8,30.9,30.11,West,270,3.8,4.6,89,0.00,SCT,,0.00,WeatherDisplay:10.37,2013-04-14 11:54:00,
2013-04-14 07:59:00,35.4,31.3,30.11,South,180,2.5,3.5,85,0.00,SCT,,0.00,WeatherDisplay:10.37,2013-04-14 11:59:00,
2013-04-14 08:04:00,36.5,31.5,30.11,South,180,1.2,2.7,82,0.00,FEW,,0.00,WeatherDisplay:10.37,2013-04-14 12:04:00,
2013-04-14 08:09:00,37.6,32.3,30.11,SW,225,4.2,6.1,81,0.00,FEW,,0.00,WeatherDisplay:10.37,2013-04-14 12:09:00,
2013-04-14 08:14:00,38.1,31.8,30.12,SSW,202,3.3,4.6,78,0.00,FEW,,0.00,WeatherDisplay:10.37,2013-04-14 12:14:00,
2013-04-14 08:19:00,39.0,31.7,30.12,SE,135,3.8,4.6,75,0.00,FEW,,0.00,WeatherDisplay:10.37,2013-04-14 12:19:00,
2013-04-14 08:24:00,39.6,32.0,30.12,SSE,158,3.1,5.8,74,0.00,FEW,,0.00,WeatherDisplay:10.37,2013-04-14 12:24:00,
2013-04-14 08:29:00,40.6,31.9,30.12,SSE,158,2.8,4.6,71,0.00,FEW,,0.00,WeatherDisplay:10.37,2013-04-14 12:29:00,
2013-04-14 08:34:00,41.9,31.7,30.12,SW,225,3.3,5.8,67,0.00,FEW,,0.00,WeatherDisplay:10.37,2013-04-14 12:34:00,
2013-04-14 08:39:00,42.4,31.8,30.13,South,180,4.7,6.1,66,0.00,FEW,,0.00,WeatherDisplay:10.37,2013-04-14 12:39:00,
2013-04-14 08:44:00,42.6,31.7,30.13,SW,225,4.6,5.3,65,0.00,FEW,,0.00,WeatherDisplay:10.37,2013-04-14 12:44:00,
2013-04-14 08:49:00,43.9,31.7,30.13,SSW,202,4.5,6.1,62,0.00,FEW,,0.00,WeatherDisplay:10.37,2013-04-14 12:49:00,
2013-04-14 08:54:00,45.0,31.9,30.13,SW,225,4.1,7.0,60,0.00,FEW,,0.00,WeatherDisplay:10.37,2013-04-14 12:54:00,
2013-04-14 08:59:00,45.1,30.8,30.13,ESE,112,5.6,8.1,57,0.00,FEW,,0.00,WeatherDisplay:10.37,2013-04-14 12:59:00,
2013-04-14 09:04:00,45.9,31.5,30.12,SSE,158,5.2,7.8,57,0.00,FEW,,0.00,WeatherDisplay:10.37,2013-04-14 13:04:00,
2013-04-14 09:09:00,45.5,30.7,30.12,SSE,158,4.7,5.8,56,0.00,FEW,,0.00,WeatherDisplay:10.37,2013-04-14 13:09:00,
2013-04-14 09:14:00,46.0,30.3,30.13,South,180,4.6,6.1,54,0.00,FEW,,0.00,WeatherDisplay:10.37,2013-04-14 13:14:00,
2013-04-14 09:19:00,44.4,31.0,30.13,SSE,158,4.0,6.1,59,0.00,FEW,,0.00,WeatherDisplay:10.37,2013-04-14 13:19:00,
2013-04-14 09:24:00,44.4,27.9,30.13,South,180,4.8,7.0,52,0.00,FEW,,0.00,WeatherDisplay:10.37,2013-04-14 13:24:00,
2013-04-14 09:29:00,44.8,28.7,30.14,South,180,6.6,9.2,53,0.00,FEW,,0.00,WeatherDisplay:10.37,2013-04-14 13:29:00,
2013-04-14 09:34:00,45.1,29.0,30.14,SSW,202,6.9,9.5,53,0.00,FEW,,0.00,WeatherDisplay:10.37,2013-04-14 13:34:00,
2013-04-14 09:39:00,45.0,28.9,30.15,South,180,9.0,9.5,53,0.00,FEW,,0.00,WeatherDisplay:10.37,2013-04-14 13:39:00,
2013-04-14 09:44:00,45.1,28.5,30.15,WSW,248,4.9,8.1,52,0.00,FEW,,0.00,WeatherDisplay:10.37,2013-04-14 13:44:00,
2013-04-14 09:49:00,45.7,28.6,30.15,SSW,202,6.0,8.1,51,0.00,FEW,,0.00,WeatherDisplay:10.37,2013-04-14 13:49:00,
2013-04-14 09:54:00,45.5,28.9,30.15,West,270,3.5,5.8,52,0.00,FEW,,0.00,WeatherDisplay:10.37,2013-04-14 13:54:00,
2013-04-14 09:59:00,46.2,28.6,30.15,West,270,4.4,9.2,50,0.00,FEW,,0.00,WeatherDisplay:10.37,2013-04-14 13:59:00,
2013-04-14 10:04:00,46.4,28.8,30.15,SSE,158,6.4,7.0,50,0.00,SCT,,0.00,WeatherDisplay:10.37,2013-04-14 14:04:00,
2013-04-14 10:09:00,46.4,28.8,30.15,North,360,7.2,9.5,50,0.00,SCT,,0.00,WeatherDisplay:10.37,2013-04-14 14:09:00,
2013-04-14 10:14:00,46.8,28.6,30.14,West,270,3.9,6.9,49,0.00,SCT,,0.00,WeatherDisplay:10.37,2013-04-14 14:14:00,
2013-04-14 10:19:00,46.4,28.3,30.14,WSW,248,6.7,10.4,49,0.00,SCT,,0.00,WeatherDisplay:10.37,2013-04-14 14:19:00,
2013-04-14 10:24:00,47.7,28.9,30.14,SSE,158,5.6,9.2,48,0.00,SCT,,0.00,WeatherDisplay:10.37,2013-04-14 14:24:00,
2013-04-14 10:29:00,47.5,29.3,30.14,East,90,4.7,5.8,49,0.00,SCT,,0.00,WeatherDisplay:10.37,2013-04-14 14:29:00,
2013-04-14 10:34:00,48.2,28.9,30.14,SSE,158,4.8,6.1,47,0.00,SCT,,0.00,WeatherDisplay:10.37,2013-04-14 14:34:00,
2013-04-14 10:39:00,48.9,29.0,30.13,NE,45,6.6,8.1,46,0.00,SCT,,0.00,WeatherDisplay:10.37,2013-04-14 14:39:00,
2013-04-14 10:44:00,49.3,29.4,30.13,ENE,68,5.5,7.0,46,0.00,SCT,,0.00,WeatherDisplay:10.37,2013-04-14 14:44:00,
2013-04-14 10:49:00,48.6,29.8,30.14,South,180,3.4,4.6,48,0.00,SCT,,0.00,WeatherDisplay:10.37,2013-04-14 14:49:00,
2013-04-14 10:54:00,48.7,28.3,30.14,SW,225,7.6,8.7,45,0.00,SCT,,0.00,WeatherDisplay:10.37,2013-04-14 14:54:00,
2013-04-14 10:59:00,48.4,28.5,30.14,West,270,8.1,10.4,46,0.00,SCT,,0.00,WeatherDisplay:10.37,2013-04-14 14:59:00,
2013-04-14 11:04:00,49.6,28.6,30.14,East,90,3.6,5.8,44,0.00,BKN,,0.00,WeatherDisplay:10.37,2013-04-14 15:04:00,
2013-04-14 11:09:00,50.2,29.7,30.14,SE,135,3.1,4.4,45,0.00,BKN,,0.00,WeatherDisplay:10.37,2013-04-14 15:09:00,
2013-04-14 11:14:00,51.4,29.6,30.13,ENE,68,8.5,11.2,43,0.00,BKN,,0.00,WeatherDisplay:10.37,2013-04-14 15:14:00,
2013-04-14 11:19:00,50.2,29.7,30.13,NE,45,3.9,5.8,45,0.00,BKN,,0.00,WeatherDisplay:10.37,2013-04-14 15:19:00,
2013-04-14 11:24:00,50.7,30.1,30.13,ENE,68,5.4,7.0,45,0.00,BKN,,0.00,WeatherDisplay:10.37,2013-04-14 15:24:00,
2013-04-14 11:29:00,51.6,30.9,30.14,NNW,338,9.8,12.1,45,0.00,BKN,,0.00,WeatherDisplay:10.37,2013-04-14 15:29:00,
2013-04-14 11:34:00,51.1,31.0,30.14,North,360,3.8,9.2,46,0.00,BKN,,0.00,WeatherDisplay:10.37,2013-04-14 15:34:00,
2013-04-14 11:39:00,51.4,30.2,30.14,WNW,292,7.4,9.5,44,0.00,BKN,,0.00,WeatherDisplay:10.37,2013-04-14 15:39:00,
2013-04-14 11:44:00,51.4,30.2,30.14,WNW,292,3.6,3.6,44,0.00,BKN,,0.00,WeatherDisplay:10.37,2013-04-14 15:44:00,
2013-04-14 11:49:00,52.7,31.9,30.14,SE,135,6.2,6.9,45,0.00,BKN,,0.00,WeatherDisplay:10.37,2013-04-14 15:49:00,
2013-04-14 11:54:00,53.2,31.3,30.14,SSE,158,4.1,8.1,43,0.00,BKN,,0.00,WeatherDisplay:10.37,2013-04-14 15:54:00,
2013-04-14 11:59:00,52.7,30.8,30.14,SW,225,5.1,8.1,43,0.00,BKN,,0.00,WeatherDisplay:10.37,2013-04-14 15:59:00,
2013-04-14 12:04:00,53.1,31.2,30.12,NE,45,5.7,7.0,43,0.00,BKN,,0.00,WeatherDisplay:10.37,2013-04-14 16:04:00,
2013-04-14 12:09:00,53.2,31.8,30.12,NW,315,5.2,7.0,44,0.00,BKN,,0.00,WeatherDisplay:10.37,2013-04-14 16:09:00,
2013-04-14 12:14:00,53.4,32.6,30.12,SSW,202,4.6,5.8,45,0.00,BKN,,0.00,WeatherDisplay:10.37,2013-04-14 16:14:00,
2013-04-14 12:19:00,52.9,31.0,30.12,ESE,112,4.2,6.9,43,0.00,BKN,,0.00,WeatherDisplay:10.37,2013-04-14 16:19:00,
2013-04-14 12:24:00,52.9,31.0,30.12,SSW,202,4.7,8.1,43,0.00,BKN,,0.00,WeatherDisplay:10.37,2013-04-14 16:24:00,
2013-04-14 12:29:00,54.3,31.7,30.11,NNE,22,7.0,10.4,42,0.00,BKN,,0.00,WeatherDisplay:10.37,2013-04-14 16:29:00,
2013-04-14 12:34:00,54.0,32.6,30.11,NNW,338,7.4,9.5,44,0.00,BKN,,0.00,WeatherDisplay:10.37,2013-04-14 16:34:00,
2013-04-14 12:39:00,52.9,31.6,30.11,East,90,3.1,5.8,44,0.00,BKN,,0.00,WeatherDisplay:10.37,2013-04-14 16:39:00,
2013-04-14 12:44:00,54.5,31.9,30.11,ENE,68,4.7,6.1,42,0.00,BKN,,0.00,WeatherDisplay:10.37,2013-04-14 16:44:00,
2013-04-14 12:49:00,54.7,32.0,30.11,SSW,202,5.9,6.1,42,0.00,BKN,,0.00,WeatherDisplay:10.37,2013-04-14 16:49:00,
2013-04-14 12:54:00,55.9,33.1,30.10,South,180,4.2,5.8,42,0.00,BKN,,0.00,WeatherDisplay:10.37,2013-04-14 16:54:00,
2013-04-14 12:59:00,56.7,34.4,30.10,SW,225,6.5,9.5,43,0.00,BKN,,0.00,WeatherDisplay:10.37,2013-04-14 16:59:00,
2013-04-14 13:04:00,54.9,33.4,30.10,North,360,4.1,6.9,44,0.00,BKN,,0.00,WeatherDisplay:10.37,2013-04-14 17:04:00,
2013-04-14 13:09:00,56.1,33.3,30.10,NNE,22,6.4,8.1,42,0.00,BKN,,0.00,WeatherDisplay:10.37,2013-04-14 17:09:00,
2013-04-14 13:14:00,56.7,33.8,30.09,SSE,158,4.1,6.9,42,0.00,BKN,,0.00,WeatherDisplay:10.37,2013-04-14 17:14:00,
2013-04-14 13:19:00,56.1,33.3,30.09,SSW,202,4.3,8.1,42,0.00,BKN,,0.00,WeatherDisplay:10.37,2013-04-14 17:19:00,
2013-04-14 13:24:00,56.3,32.9,30.09,East,90,4.7,8.1,41,0.00,BKN,,0.00,WeatherDisplay:10.37,2013-04-14 17:24:00,
2013-04-14 13:29:00,56.1,32.7,30.09,NNE,22,7.0,9.2,41,0.00,BKN,,0.00,WeatherDisplay:10.37,2013-04-14 17:29:00,
2013-04-14 13:34:00,56.8,33.3,30.09,NE,45,7.8,9.2,41,0.00,BKN,,0.00,WeatherDisplay:10.37,2013-04-14 17:34:00,
2013-04-14 13:39:00,56.8,33.3,30.08,NE,45,6.2,11.5,41,0.00,BKN,,0.00,WeatherDisplay:10.37,2013-04-14 17:39:00,
2013-04-14 13:44:00,56.8,33.3,30.08,NNE,22,5.3,8.1,41,0.00,BKN,,0.00,WeatherDisplay:10.37,2013-04-14 17:44:00,
2013-04-14 13:49:00,57.2,33.1,30.08,NNE,22,7.9,11.5,40,0.00,BKN,,0.00,WeatherDisplay:10.37,2013-04-14 17:49:00,
2013-04-14 13:54:00,57.9,33.7,30.08,NE,45,7.5,9.2,40,0.00,BKN,,0.00,WeatherDisplay:10.37,2013-04-14 17:54:00,
2013-04-14 13:59:00,58.5,34.2,30.08,ESE,112,7.2,9.5,40,0.00,BKN,,0.00,WeatherDisplay:10.37,2013-04-14 17:59:00,
2013-04-14 14:04:00,58.1,33.9,30.08,NE,45,4.0,7.8,40,0.00,BKN,,0.00,WeatherDisplay:10.37,2013-04-14 18:04:00,
2013-04-14 14:09:00,58.6,33.7,30.08,ESE,119,5.0,10.0,39,0.00,BKN,BKN,0.00,WeatherDisplay:10.37,2013-04-14 18:09:00,
2013-04-14 14:15:00,58.6,33.7,30.08,ESE,112,6.5,9.2,39,0.00,BKN,,0.00,WeatherDisplay:10.37,2013-04-14 18:15:00,
2013-04-14 14:20:00,58.8,33.9,30.08,ENE,68,4.0,4.6,39,0.00,BKN,,0.00,WeatherDisplay:10.37,2013-04-14 18:20:00,
2013-04-14 14:25:00,59.4,35.1,30.08,East,90,4.9,6.1,40,0.00,BKN,,0.00,WeatherDisplay:10.37,2013-04-14 18:25:00,
2013-04-14 14:30:00,59.2,33.6,30.08,East,90,7.1,9.2,38,0.00,BKN,,0.00,WeatherDisplay:10.37,2013-04-14 18:30:00,
2013-04-14 14:35:00,59.2,34.2,30.08,East,90,4.8,6.9,39,0.00,BKN,,0.00,WeatherDisplay:10.37,2013-04-14 18:35:00,
2013-04-14 14:40:00,59.0,33.4,30.07,SW,225,5.2,6.1,38,0.00,BKN,,0.00,WeatherDisplay:10.37,2013-04-14 18:40:00,
2013-04-14 14:45:00,60.1,35.0,30.07,South,180,2.1,3.5,39,0.00,BKN,,0.00,WeatherDisplay:10.37,2013-04-14 18:45:00,
2013-04-14 14:50:00,59.2,34.2,30.08,ENE,68,4.5,6.9,39,0.00,BKN,,0.00,WeatherDisplay:10.37,2013-04-14 18:50:00,
2013-04-14 14:55:00,60.3,33.2,30.08,SE,135,7.5,9.2,36,0.00,BKN,,0.00,WeatherDisplay:10.37,2013-04-14 18:55:00,
2013-04-14 15:00:00,60.6,34.8,30.08,ESE,112,6.6,10.4,38,0.00,BKN,,0.00,WeatherDisplay:10.37,2013-04-14 19:00:00,
2013-04-14 15:05:00,61.5,35.6,30.07,South,180,4.3,10.4,38,0.00,BKN,,0.00,WeatherDisplay:10.37,2013-04-14 19:05:00,
2013-04-14 15:10:00,59.5,32.5,30.07,NE,45,4.4,5.8,36,0.00,BKN,,0.00,WeatherDisplay:10.37,2013-04-14 19:10:00,
2013-04-14 15:15:00,60.8,34.3,30.07,NNE,22,4.3,6.1,37,0.00,BKN,,0.00,WeatherDisplay:10.37,2013-04-14 19:15:00,
2013-04-14 15:20:00,60.8,35.0,30.07,NW,315,4.9,6.9,38,0.00,BKN,,0.00,WeatherDisplay:10.37,2013-04-14 19:20:00,
2013-04-14 15:25:00,60.1,35.0,30.07,West,270,3.4,6.9,39,0.00,BKN,,0.00,WeatherDisplay:10.37,2013-04-14 19:25:00,
2013-04-14 15:30:00,61.9,35.3,30.07,ENE,68,3.4,5.3,37,0.00,BKN,,0.00,WeatherDisplay:10.37,2013-04-14 19:30:00,
2013-04-14 15:35:00,60.6,34.2,30.07,NNW,338,5.1,8.1,37,0.00,BKN,,0.00,WeatherDisplay:10.37,2013-04-14 19:35:00,
2013-04-14 15:40:00,61.2,34.0,30.05,South,180,2.9,4.6,36,0.00,BKN,,0.00,WeatherDisplay:10.37,2013-04-14 19:40:00,
2013-04-14 15:45:00,61.9,36.0,30.05,WNW,292,3.2,5.8,38,0.00,BKN,,0.00,WeatherDisplay:10.37,2013-04-14 19:45:00,
2013-04-14 15:50:00,61.9,35.3,30.05,West,270,2.7,6.9,37,0.00,BKN,,0.00,WeatherDisplay:10.37,2013-04-14 19:50:00,
2013-04-14 15:55:00,61.7,35.8,30.05,WSW,248,5.0,8.1,38,0.00,BKN,,0.00,WeatherDisplay:10.37,2013-04-14 19:55:00,
2013-04-14 16:00:00,62.1,34.8,30.05,SSE,158,4.6,5.3,36,0.00,BKN,,0.00,WeatherDisplay:10.37,2013-04-14 20:00:00,
2013-04-14 16:05:00,62.2,35.6,30.05,NE,45,5.7,7.8,37,0.00,OVC,,0.00,WeatherDisplay:10.37,2013-04-14 20:05:00,
2013-04-14 16:10:00,61.3,35.5,30.05,WNW,292,4.9,6.1,38,0.00,OVC,,0.00,WeatherDisplay:10.37,2013-04-14 20:10:00,
2013-04-14 16:15:00,62.6,35.9,30.05,North,360,5.6,7.8,37,0.00,OVC,,0.00,WeatherDisplay:10.37,2013-04-14 20:15:00,
2013-04-14 16:20:00,62.6,35.3,30.05,NE,45,5.6,6.9,36,0.00,OVC,,0.00,WeatherDisplay:10.37,2013-04-14 20:20:00,
2013-04-14 16:25:00,62.6,35.3,30.05,NE,45,5.7,7.0,36,0.00,OVC,,0.00,WeatherDisplay:10.37,2013-04-14 20:25:00,
2013-04-14 16:30:00,62.1,36.2,30.05,SSW,202,3.6,6.1,38,0.00,OVC,,0.00,WeatherDisplay:10.37,2013-04-14 20:30:00,
2013-04-14 16:35:00,63.1,35.7,30.05,South,180,5.9,7.0,36,0.00,OVC,,0.00,WeatherDisplay:10.37,2013-04-14 20:35:00,
2013-04-14 16:40:00,63.7,36.2,30.04,SSE,158,6.9,8.1,36,0.00,OVC,,0.00,WeatherDisplay:10.37,2013-04-14 20:40:00,
2013-04-14 16:45:00,62.1,35.5,30.04,East,90,3.8,5.8,37,0.00,OVC,,0.00,WeatherDisplay:10.37,2013-04-14 20:45:00,
2013-04-14 16:50:00,62.8,36.8,30.04,SSW,202,2.8,4.6,38,0.00,OVC,,0.00,WeatherDisplay:10.37,2013-04-14 20:50:00,
2013-04-14 16:55:00,64.0,37.2,30.04,South,180,2.6,4.6,37,0.00,OVC,,0.00,WeatherDisplay:10.37,2013-04-14 20:55:00,
2013-04-14 17:00:00,63.7,36.9,30.04,South,180,4.8,7.8,37,0.00,OVC,,0.00,WeatherDisplay:10.37,2013-04-14 21:00:00,
2013-04-14 17:05:00,63.7,36.2,30.04,SW,225,5.9,7.0,36,0.00,BKN,,0.00,WeatherDisplay:10.37,2013-04-14 21:05:00,
2013-04-14 17:10:00,63.0,35.6,30.04,SSW,202,2.7,6.9,36,0.00,BKN,,0.00,WeatherDisplay:10.37,2013-04-14 21:10:00,
2013-04-14 17:15:00,61.7,35.8,30.04,NW,315,4.9,5.8,38,0.00,BKN,,0.00,WeatherDisplay:10.37,2013-04-14 21:15:00,
2013-04-14 17:20:00,62.6,35.3,30.04,ENE,68,3.4,5.8,36,0.00,BKN,,0.00,WeatherDisplay:10.37,2013-04-14 21:20:00,
2013-04-14 17:25:00,62.8,35.4,30.04,SE,135,3.5,4.6,36,0.00,BKN,,0.00,WeatherDisplay:10.37,2013-04-14 21:25:00,
2013-04-14 17:30:00,63.0,35.6,30.04,NE,45,3.8,4.6,36,0.00,BKN,,0.00,WeatherDisplay:10.37,2013-04-14 21:30:00,
2013-04-14 17:35:00,62.6,35.9,30.04,WNW,292,4.5,7.0,37,0.00,BKN,,0.00,WeatherDisplay:10.37,2013-04-14 21:35:00,
2013-04-14 17:40:00,62.8,36.8,30.03,NNW,338,4.3,6.1,38,0.00,BKN,,0.00,WeatherDisplay:10.37,2013-04-14 21:40:00,
2013-04-14 17:45:00,63.7,36.2,30.03,NE,45,7.1,8.1,36,0.00,BKN,,0.00,WeatherDisplay:10.37,2013-04-14 21:45:00,
2013-04-14 17:50:00,62.6,35.9,30.03,NE,45,4.0,6.1,37,0.00,BKN,,0.00,WeatherDisplay:10.37,2013-04-14 21:50:00,
2013-04-14 17:55:00,63.3,36.6,30.03,ENE,68,5.0,5.8,37,0.00,BKN,,0.00,WeatherDisplay:10.37,2013-04-14 21:55:00,
2013-04-14 18:00:00,63.7,36.2,30.03,East,90,4.2,6.9,36,0.00,BKN,,0.00,WeatherDisplay:10.37,2013-04-14 22:00:00,
2013-04-14 18:05:00,62.8,37.5,30.03,WNW,292,4.0,5.8,39,0.00,BKN,,0.00,WeatherDisplay:10.37,2013-04-14 22:05:00,
2013-04-14 18:10:00,63.0,37.0,30.03,NNE,22,4.1,5.8,38,0.00,BKN,,0.00,WeatherDisplay:10.37,2013-04-14 22:10:00,
2013-04-14 18:15:00,64.0,37.2,30.03,WNW,292,4.0,4.6,37,0.00,BKN,,0.00,WeatherDisplay:10.37,2013-04-14 22:15:00,
2013-04-14 18:20:00,63.1,36.4,30.03,NE,45,5.7,8.1,37,0.00,BKN,,0.00,WeatherDisplay:10.37,2013-04-14 22:20:00,
2013-04-14 18:25:00,63.5,37.4,30.03,NE,45,2.9,3.6,38,0.00,BKN,,0.00,WeatherDisplay:10.37,2013-04-14 22:25:00,
2013-04-14 18:30:00,62.6,36.6,30.03,NE,45,7.7,10.4,38,0.00,BKN,,0.00,WeatherDisplay:10.37,2013-04-14 22:30:00,
2013-04-14 18:35:00,62.1,36.2,30.03,NW,315,5.4,8.1,38,0.00,BKN,,0.00,WeatherDisplay:10.37,2013-04-14 22:35:00,
2013-04-14 18:40:00,62.1,36.2,30.03,NE,45,3.6,5.8,38,0.00,BKN,,0.00,WeatherDisplay:10.37,2013-04-14 22:40:00,
2013-04-14 18:45:00,61.9,36.7,30.03,ENE,68,4.3,6.9,39,0.00,BKN,,0.00,WeatherDisplay:10.37,2013-04-14 22:45:00,
2013-04-14 18:50:00,61.5,36.3,30.03,NNE,22,5.5,8.1,39,0.00,BKN,,0.00,WeatherDisplay:10.37,2013-04-14 22:50:00,
2013-04-14 18:55:00,61.7,37.1,30.03,NE,45,3.2,4.4,40,0.00,BKN,,0.00,WeatherDisplay:10.37,2013-04-14 22:55:00,
2013-04-14 19:00:00,61.5,36.9,30.03,NNE,22,6.0,7.0,40,0.00,BKN,,0.00,WeatherDisplay:10.37,2013-04-14 23:00:00,
2013-04-14 19:05:00,61.2,36.7,30.03,NNE,22,4.1,6.9,40,0.00,OVC,,0.00,WeatherDisplay:10.37,2013-04-14 23:05:00,
2013-04-14 19:10:00,61.0,36.5,30.03,NE,45,3.7,6.9,40,0.00,OVC,,0.00,WeatherDisplay:10.37,2013-04-14 23:10:00,
2013-04-14 19:15:00,60.6,36.8,30.03,NNE,22,7.8,9.2,41,0.00,OVC,,0.00,WeatherDisplay:10.37,2013-04-14 23:15:00,
2013-04-14 19:20:00,60.4,36.6,30.03,NNW,338,4.4,6.9,41,0.00,OVC,,0.00,WeatherDisplay:10.37,2013-04-14 23:20:00,
2013-04-14 19:25:00,59.9,36.1,30.03,NE,45,6.1,7.8,41,0.00,OVC,,0.00,WeatherDisplay:10.37,2013-04-14 23:25:00,
2013-04-14 19:30:00,59.7,36.6,30.03,ENE,68,5.4,8.1,42,0.00,OVC,,0.00,WeatherDisplay:10.37,2013-04-14 23:30:00,
2013-04-14 19:35:00,59.5,37.0,30.03,NE,45,4.3,5.8,43,0.00,OVC,,0.00,WeatherDisplay:10.37,2013-04-14 23:35:00,
2013-04-14 19:40:00,59.2,36.7,30.02,NE,45,4.0,5.3,43,0.00,OVC,,0.00,WeatherDisplay:10.37,2013-04-14 23:40:00,
2013-04-14 19:45:00,58.8,36.3,30.02,NE,45,4.7,5.8,43,0.00,OVC,,0.00,WeatherDisplay:10.37,2013-04-14 23:45:00,
2013-04-14 19:50:00,58.5,36.1,30.02,NE,45,5.2,7.0,43,0.00,OVC,,0.00,WeatherDisplay:10.37,2013-04-14 23:50:00,
2013-04-14 19:55:00,58.3,36.5,30.02,NE,45,3.9,5.8,44,0.00,OVC,,0.00,WeatherDisplay:10.37,2013-04-14 23:55:00,
2013-04-14 20:00:00,58.1,36.3,30.02,NNE,22,5.5,6.1,44,0.00,OVC,,0.00,WeatherDisplay:10.37,2013-04-15 00:00:00,
2013-04-14 20:05:00,57.9,36.1,30.02,NNE,22,5.9,7.0,44,0.00,OVC,,0.00,WeatherDisplay:10.37,2013-04-15 00:05:00,
2013-04-14 20:10:00,57.7,35.9,30.02,NE,45,2.9,3.6,44,0.00,OVC,,0.00,WeatherDisplay:10.37,2013-04-15 00:10:00,
2013-04-14 20:15:00,57.4,36.2,30.02,NE,45,4.3,5.8,45,0.00,OVC,,0.00,WeatherDisplay:10.37,2013-04-15 00:15:00,
2013-04-14 20:22:00,57.2,36.6,30.02,NE,45,1.1,4.6,46,0.00,OVC,,0.00,WeatherDisplay:10.37,2013-04-15 00:22:00,
2013-04-14 20:28:00,56.7,36.1,30.02,NE,45,0.0,2.3,46,0.00,OVC,,0.00,WeatherDisplay:10.37,2013-04-15 00:28:00,
2013-04-14 20:33:00,56.3,36.3,30.02,NE,45,3.0,4.6,47,0.00,OVC,,0.00,WeatherDisplay:10.37,2013-04-15 00:33:00,
2013-04-14 20:39:00,56.1,36.7,30.02,ENE,68,1.0,4.6,48,0.00,OVC,,0.00,WeatherDisplay:10.37,2013-04-15 00:39:00,
2013-04-14 20:44:00,55.9,35.9,30.02,ENE,68,0.9,2.7,47,0.00,OVC,,0.00,WeatherDisplay:10.37,2013-04-15 00:44:00,
2013-04-14 20:49:00,55.8,36.4,30.02,ENE,68,0.0,0.0,48,0.00,OVC,,0.00,WeatherDisplay:10.37,2013-04-15 00:49:00,
2013-04-14 20:54:00,55.6,36.7,30.03,NNE,22,3.5,3.6,49,0.00,OVC,,0.00,WeatherDisplay:10.37,2013-04-15 00:54:00,
2013-04-14 20:59:00,55.8,36.4,30.03,NNE,22,3.5,5.8,48,0.00,OVC,,0.00,WeatherDisplay:10.37,2013-04-15 00:59:00,
2013-04-14 21:04:00,55.8,36.4,30.02,NE,45,3.7,4.6,48,0.00,OVC,,0.00,WeatherDisplay:10.37,2013-04-15 01:04:00,
2013-04-14 21:09:00,55.8,36.4,30.02,NNE,22,3.9,6.1,48,0.00,OVC,,0.00,WeatherDisplay:10.37,2013-04-15 01:09:00,
2013-04-14 21:14:00,55.8,37.4,30.02,NNE,22,0.1,2.3,50,0.00,OVC,,0.00,WeatherDisplay:10.37,2013-04-15 01:14:00,
2013-04-14 21:19:00,55.6,36.7,30.02,West,270,3.4,4.6,49,0.00,OVC,,0.00,WeatherDisplay:10.37,2013-04-15 01:19:00,
2013-04-14 21:24:00,55.4,37.1,30.02,West,270,2.4,3.6,50,0.00,OVC,,0.00,WeatherDisplay:10.37,2013-04-15 01:24:00,
2013-04-14 21:29:00,55.0,36.7,30.02,NNE,22,3.2,3.6,50,0.00,OVC,,0.00,WeatherDisplay:10.37,2013-04-15 01:29:00,
2013-04-14 21:34:00,55.0,36.7,30.02,NNE,22,0.0,2.3,50,0.00,OVC,,0.00,WeatherDisplay:10.37,2013-04-15 01:34:00,
2013-04-14 21:39:00,54.9,37.1,30.03,NNE,22,4.9,6.1,51,0.00,OVC,,0.00,WeatherDisplay:10.37,2013-04-15 01:39:00,
2013-04-14 21:44:00,54.9,38.1,30.03,NNE,22,1.9,3.5,53,0.00,OVC,,0.00,WeatherDisplay:10.37,2013-04-15 01:44:00,
2013-04-14 21:49:00,54.5,37.7,30.03,NNE,22,3.8,4.6,53,0.00,OVC,,0.00,WeatherDisplay:10.37,2013-04-15 01:49:00,
2013-04-14 21:54:00,54.0,38.6,30.02,NE,45,3.0,3.6,56,0.00,OVC,,0.00,WeatherDisplay:10.37,2013-04-15 01:54:00,
2013-04-14 21:59:00,53.1,38.3,30.02,WNW,292,3.4,4.4,57,0.00,OVC,,0.00,WeatherDisplay:10.37,2013-04-15 01:59:00,
2013-04-14 22:04:00,52.9,39.0,30.02,WNW,292,0.0,2.3,59,0.00,OVC,,0.00,WeatherDisplay:10.37,2013-04-15 02:04:00,
2013-04-14 22:09:00,52.9,38.5,30.02,WNW,292,4.9,8.7,58,0.00,OVC,,0.00,WeatherDisplay:10.37,2013-04-15 02:09:00,
2013-04-14 22:14:00,53.2,38.8,30.02,WNW,292,4.1,4.6,58,0.00,OVC,,0.00,WeatherDisplay:10.37,2013-04-15 02:14:00,
2013-04-14 22:19:00,53.2,38.4,30.02,WNW,292,3.1,4.6,57,0.00,OVC,,0.00,WeatherDisplay:10.37,2013-04-15 02:19:00,
2013-04-14 22:24:00,53.1,39.1,30.02,WNW,292,1.2,4.6,59,0.00,OVC,,0.00,WeatherDisplay:10.37,2013-04-15 02:24:00,
2013-04-14 22:29:00,53.1,37.8,30.01,NW,315,2.5,4.4,56,0.00,OVC,,0.00,WeatherDisplay:10.37,2013-04-15 02:29:00,
2013-04-14 22:34:00,53.4,37.2,30.01,NE,45,5.3,7.0,54,0.00,OVC,,0.00,WeatherDisplay:10.37,2013-04-15 02:34:00,
2013-04-14 22:39:00,53.6,39.2,30.01,WNW,292,3.9,4.6,58,0.00,OVC,,0.00,WeatherDisplay:10.37,2013-04-15 02:39:00,
2013-04-14 22:44:00,53.4,39.0,30.01,NNE,22,3.1,3.6,58,0.00,OVC,,0.00,WeatherDisplay:10.37,2013-04-15 02:44:00,
2013-04-14 22:49:00,53.6,38.7,30.01,WNW,292,3.5,5.8,57,0.00,OVC,,0.00,WeatherDisplay:10.37,2013-04-15 02:49:00,
2013-04-14 22:54:00,53.8,38.9,30.01,NNE,22,2.7,3.6,57,0.00,OVC,,0.00,WeatherDisplay:10.37,2013-04-15 02:54:00,
2013-04-14 22:59:00,55.2,39.8,30.01,South,180,0.0,4.6,56,0.00,OVC,,0.00,WeatherDisplay:10.37,2013-04-15 02:59:00,
2013-04-14 23:04:00,54.5,39.1,30.01,WNW,292,4.7,5.8,56,0.00,OVC,,0.00,WeatherDisplay:10.37,2013-04-15 03:04:00,
2013-04-14 23:09:00,54.7,39.3,30.01,North,360,1.4,3.5,56,0.00,OVC,,0.00,WeatherDisplay:10.37,2013-04-15 03:09:00,
2013-04-14 23:14:00,54.5,39.1,30.00,North,360,3.4,3.6,56,0.00,OVC,,0.00,WeatherDisplay:10.37,2013-04-15 03:14:00,
2013-04-14 23:19:00,54.7,38.8,30.00,NNW,338,4.3,4.6,55,0.00,OVC,,0.00,WeatherDisplay:10.37,2013-04-15 03:19:00,
2013-04-14 23:24:00,54.3,38.0,30.00,West,270,4.7,6.1,54,0.00,OVC,,0.00,WeatherDisplay:10.37,2013-04-15 03:24:00,
2013-04-14 23:29:00,55.2,36.4,30.01,NNW,338,6.5,8.1,49,0.00,OVC,,0.00,WeatherDisplay:10.37,2013-04-15 03:29:00,
2013-04-14 23:34:00,55.8,37.4,30.01,North,360,4.5,6.1,50,0.00,OVC,,0.00,WeatherDisplay:10.37,2013-04-15 03:34:00,
2013-04-14 23:39:00,55.6,38.2,30.00,North,360,0.3,2.3,52,0.00,OVC,,0.00,WeatherDisplay:10.37,2013-04-15 03:39:00,
2013-04-14 23:44:00,56.1,37.2,30.00,North,360,2.3,3.5,49,0.00,OVC,,0.00,WeatherDisplay:10.37,2013-04-15 03:44:00,
2013-04-14 23:49:00,55.9,37.0,30.00,WNW,292,1.5,2.7,49,0.00,OVC,,0.00,WeatherDisplay:10.37,2013-04-15 03:49:00,
2013-04-14 23:54:00,56.1,37.2,30.00,WNW,292,0.2,2.3,49,0.00,OVC,,0.00,WeatherDisplay:10.37,2013-04-15 03:54:00,
2013-04-14 23:59:00,56.1,36.7,30.00,WNW,292,0.0,0.0,48,0.00,OVC,,0.00,WeatherDisplay:10.37,2013-04-15 03:59:00,